TimeCDT,TemperatureF,Dew PointF,Humidity,Sea Level PressureIn,VisibilityMPH,Wind Direction,Wind SpeedMPH,Gust SpeedMPH,PrecipitationIn,Events,Conditions,WindDirDegrees,DateUTC
12:12 AM,60.8,55.4,82,29.55,10.0,SE,8.1,-,0.02,Rain,Rain,140,2013-05-31 05:12:00
12:33 AM,60.8,55.4,82,29.56,10.0,South,10.4,-,0.02,,Mostly Cloudy,180,2013-05-31 05:33:00
12:53 AM,60.8,53.6,77,29.55,10.0,SSE,5.8,-,0.02,,Scattered Clouds,160,2013-05-31 05:53:00
1:12 AM,60.8,53.6,77,29.55,10.0,South,8.1,-,N/A,,Clear,170,2013-05-31 06:12:00
1:33 AM,60.8,53.6,77,29.53,10.0,South,10.4,-,N/A,,Clear,170,2013-05-31 06:33:00
1:53 AM,60.8,53.6,77,29.52,10.0,SSE,9.2,-,N/A,,Clear,160,2013-05-31 06:53:00
2:12 AM,60.8,51.8,72,29.52,10.0,South,11.5,17.3,N/A,,Clear,170,2013-05-31 07:12:00
2:33 AM,60.8,51.8,72,29.52,10.0,South,15.0,21.9,N/A,,Clear,180,2013-05-31 07:33:00
2:53 AM,60.8,51.8,72,29.51,10.0,South,16.1,23.0,N/A,,Clear,180,2013-05-31 07:53:00
3:12 AM,60.8,53.6,77,29.51,10.0,South,13.8,20.7,N/A,,Clear,180,2013-05-31 08:12:00
3:33 AM,60.8,53.6,77,29.51,10.0,South,13.8,21.9,N/A,,Clear,180,2013-05-31 08:33:00
3:52 AM,60.8,53.6,77,29.51,10.0,South,18.4,21.9,N/A,,Clear,170,2013-05-31 08:52:00
4:12 AM,60.8,51.8,72,29.51,10.0,South,15.0,21.9,N/A,,Clear,190,2013-05-31 09:12:00
4:33 AM,60.8,51.8,72,29.50,10.0,South,16.1,21.9,N/A,,Clear,180,2013-05-31 09:33:00
4:52 AM,60.8,51.8,72,29.51,10.0,South,17.3,25.3,N/A,,Clear,180,2013-05-31 09:52:00
5:12 AM,59.0,51.8,77,29.50,10.0,South,15.0,21.9,N/A,,Clear,190,2013-05-31 10:12:00
5:33 AM,59.0,51.8,77,29.51,10.0,South,11.5,19.6,N/A,,Clear,190,2013-05-31 10:33:00
5:52 AM,57.2,51.8,82,29.50,10.0,South,12.7,18.4,N/A,,Clear,180,2013-05-31 10:52:00
6:12 AM,57.2,51.8,82,29.51,10.0,South,12.7,20.7,N/A,,Clear,180,2013-05-31 11:12:00
6:33 AM,59.0,51.8,77,29.51,10.0,South,10.4,-,N/A,,Clear,180,2013-05-31 11:33:00
6:52 AM,59.0,51.8,77,29.51,10.0,South,11.5,18.4,N/A,,Clear,180,2013-05-31 11:52:00
7:12 AM,59.0,51.8,77,29.52,10.0,South,12.7,18.4,N/A,,Clear,190,2013-05-31 12:12:00
7:33 AM,60.8,51.8,72,29.52,10.0,South,13.8,21.9,N/A,,Clear,180,2013-05-31 12:33:00
7:52 AM,60.8,51.8,72,29.52,10.0,SSW,20.7,27.6,N/A,,Clear,200,2013-05-31 12:52:00
8:12 AM,60.8,51.8,72,29.52,10.0,SSW,21.9,26.5,N/A,,Clear,200,2013-05-31 13:12:00
8:32 AM,62.6,50.0,63,29.53,10.0,SSW,20.7,27.6,N/A,,Clear,200,2013-05-31 13:32:00
8:52 AM,62.6,51.8,68,29.53,10.0,SSW,19.6,26.5,N/A,,Clear,210,2013-05-31 13:52:00
9:13 AM,62.6,50.0,63,29.54,10.0,SSW,19.6,26.5,N/A,,Clear,200,2013-05-31 14:13:00
9:32 AM,62.6,51.8,68,29.54,10.0,South,18.4,28.8,N/A,,Scattered Clouds,190,2013-05-31 14:32:00
9:53 AM,64.4,51.8,64,29.54,10.0,SSW,21.9,27.6,N/A,,Scattered Clouds,200,2013-05-31 14:53:00
10:13 AM,64.4,51.8,64,29.53,10.0,SSW,16.1,26.5,N/A,,Scattered Clouds,200,2013-05-31 15:13:00
10:32 AM,64.4,51.8,64,29.53,10.0,SSW,18.4,28.8,N/A,,Scattered Clouds,200,2013-05-31 15:32:00
10:53 AM,66.2,51.8,60,29.53,10.0,South,18.4,27.6,N/A,,Scattered Clouds,190,2013-05-31 15:53:00
11:13 AM,66.2,51.8,60,29.54,10.0,South,18.4,25.3,N/A,,Scattered Clouds,180,2013-05-31 16:13:00
11:32 AM,66.2,51.8,60,29.54,10.0,South,24.2,31.1,N/A,,Scattered Clouds,190,2013-05-31 16:32:00
11:53 AM,68.0,51.8,56,29.55,10.0,South,23.0,29.9,N/A,,Clear,190,2013-05-31 16:53:00
12:13 PM,68.0,50.0,52,29.55,10.0,South,21.9,29.9,N/A,,Scattered Clouds,190,2013-05-31 17:13:00
12:32 PM,69.8,51.8,53,29.55,10.0,South,19.6,32.2,N/A,,Scattered Clouds,190,2013-05-31 17:32:00
12:53 PM,68.0,51.8,56,29.55,10.0,South,21.9,31.1,N/A,,Mostly Cloudy,190,2013-05-31 17:53:00
1:13 PM,66.2,51.8,60,29.55,10.0,South,19.6,27.6,N/A,,Mostly Cloudy,190,2013-05-31 18:13:00
1:32 PM,69.8,51.8,53,29.55,10.0,South,23.0,29.9,N/A,,Mostly Cloudy,190,2013-05-31 18:32:00
1:52 PM,69.8,51.8,53,29.54,10.0,South,26.5,29.9,N/A,,Scattered Clouds,190,2013-05-31 18:52:00
2:13 PM,71.6,50.0,46,29.54,10.0,South,24.2,31.1,N/A,,Scattered Clouds,190,2013-05-31 19:13:00
2:32 PM,69.8,51.8,53,29.54,10.0,SSW,19.6,29.9,N/A,,Mostly Cloudy,200,2013-05-31 19:32:00
2:52 PM,69.8,48.2,46,29.53,10.0,SSW,24.2,31.1,N/A,,Mostly Cloudy,200,2013-05-31 19:52:00
3:12 PM,71.6,48.2,43,29.53,10.0,SSW,20.7,32.2,N/A,,Mostly Cloudy,210,2013-05-31 20:12:00
3:32 PM,71.6,48.2,43,29.53,10.0,SSW,19.6,35.7,N/A,,Mostly Cloudy,210,2013-05-31 20:32:00
3:52 PM,71.6,50.0,46,29.53,10.0,SSW,20.7,31.1,N/A,,Mostly Cloudy,210,2013-05-31 20:52:00
4:12 PM,71.6,48.2,43,29.53,10.0,SW,21.9,31.1,N/A,,Mostly Cloudy,220,2013-05-31 21:12:00
4:33 PM,71.6,48.2,43,29.53,10.0,SW,19.6,29.9,N/A,,Scattered Clouds,220,2013-05-31 21:33:00
4:52 PM,71.6,46.4,41,29.53,10.0,SW,26.5,35.7,N/A,,Mostly Cloudy,220,2013-05-31 21:52:00
5:12 PM,71.6,48.2,43,29.53,10.0,SW,15.0,28.8,N/A,,Mostly Cloudy,230,2013-05-31 22:12:00
5:33 PM,71.6,51.8,50,29.54,10.0,WSW,20.7,26.5,N/A,,Scattered Clouds,240,2013-05-31 22:33:00
5:52 PM,69.8,50.0,49,29.54,10.0,SW,16.1,23.0,N/A,,Mostly Cloudy,230,2013-05-31 22:52:00
6:12 PM,69.8,50.0,49,29.54,10.0,WSW,16.1,20.7,N/A,,Mostly Cloudy,240,2013-05-31 23:12:00
6:33 PM,69.8,50.0,49,29.54,10.0,SW,12.7,19.6,N/A,,Overcast,230,2013-05-31 23:33:00
6:52 PM,68.0,51.8,56,29.54,10.0,WSW,12.7,17.3,N/A,,Overcast,240,2013-05-31 23:52:00
7:12 PM,66.2,51.8,60,29.54,10.0,WSW,9.2,-,N/A,,Scattered Clouds,240,2013-06-01 00:12:00
7:33 PM,66.2,51.8,60,29.55,10.0,WSW,6.9,-,N/A,,Mostly Cloudy,240,2013-06-01 00:33:00
7:53 PM,66.2,51.8,60,29.55,10.0,West,6.9,-,N/A,,Overcast,260,2013-06-01 00:53:00
8:12 PM,66.2,51.8,60,29.55,10.0,West,5.8,-,N/A,,Overcast,260,2013-06-01 01:12:00
8:33 PM,66.2,53.6,64,29.55,10.0,SW,5.8,-,N/A,,Overcast,230,2013-06-01 01:33:00
8:52 PM,66.2,50.0,56,29.55,10.0,SW,8.1,-,N/A,,Overcast,230,2013-06-01 01:52:00
9:12 PM,66.2,48.2,52,29.56,10.0,WSW,15.0,-,N/A,,Overcast,240,2013-06-01 02:12:00
9:32 PM,64.4,50.0,59,29.57,10.0,WSW,15.0,23.0,N/A,,Overcast,240,2013-06-01 02:32:00
9:52 PM,64.4,50.0,59,29.58,10.0,SW,13.8,19.6,N/A,,Overcast,230,2013-06-01 02:52:00
10:12 PM,62.6,50.0,63,29.58,10.0,SW,15.0,19.6,N/A,,Mostly Cloudy,230,2013-06-01 03:12:00
10:32 PM,60.8,50.0,68,29.58,10.0,SW,13.8,-,N/A,,Scattered Clouds,230,2013-06-01 03:32:00
10:53 PM,59.0,51.8,77,29.58,10.0,SW,12.7,-,N/A,,Clear,230,2013-06-01 03:53:00
11:12 PM,59.0,51.8,77,29.57,10.0,SW,11.5,17.3,N/A,,Clear,230,2013-06-01 04:12:00
11:32 PM,57.2,51.8,82,29.58,10.0,SSW,12.7,17.3,N/A,,Clear,210,2013-06-01 04:32:00
11:53 PM,57.2,51.8,82,29.57,10.0,SSW,11.5,-,N/A,,Clear,210,2013-06-01 04:53:00